User: anonymous   Login
Location: Unspecified
(0.0000°N, 0.0000°E)
Time: 13:18:18
(UTC+00:00)
Language:

DSP F18 - Orbit

View from above orbital plane
View from above orbital plane
View from above satellite
View from above satellite

Ground track
Ground track

The orbit data is extracted from the following two-line orbital elements,

1 24737U 97008A   21015.71735024  .00000021  00000-0  00000-0 0  9998
2 24737  13.6685  18.0110 0000936 222.5422 141.3371  1.00265272 13067
Epoch (UTC): 15 January 2021 17:12:59
Eccentricity: 0.0000936
inclination: 13.6685°
perigee height: 35784 km
apogee height: 35792 km
right ascension of ascending node: 18.0110°
argument of perigee: 222.5422°
revolutions per day: 1.00265272
mean anomaly at epoch: 141.3371°
orbit number at epoch: 1306

The dashed part of the orbit path shows where the satellite is in the earth's shadow,  

DLR